Location: Asheville, NC
(35.6000°N, 82.5500°W)
Time: 11:03:51
(UTC-04:00)

UWE-3 - Pass Details

Date: 09 February 2018
Orbit: 587 x 683 km, 97.6° (Epoch: 24 May)

Event Time Altitude Azimuth Distance (km) Brightness Sun altitude
Rises 19:56:31 0° 188° (S) 3,001 ? -22.9°
Reaches altitude 10° 19:58:53 10° 197° (SSW) 2,101 ? -23.3°
Maximum altitude 20:03:06 35° 263° (W) 1,089 ? -24.2°
Drops below altitude 10° 20:07:23 10° 329° (NNW) 2,129 ? -25.1°
Sets 20:09:49 0° 338° (NNW) 3,048 ? -25.6°
